{"data":{"norad_id":52605,"intl_designator":"2022-052H","name":"STARLINK-4000","alt_names":[],"object_type":"PAYLOAD","status":"ACTIVE","operator":null,"country":"US","launch_date":"2022-05-14","launch_site_code":"AFETR","launch_vehicle":null,"mission":null,"orbit_class":"UNKNOWN","rcs_meters":null,"size_class":null,"mass_kg":null,"dimensions":null,"purposes":["comms"],"wikipedia_slug":null,"has_3d_model":false,"image_url":null,"decayed_at":null,"tle_current":{"epoch":"2026-05-24T15:30:58.777632Z","epoch_age_seconds":101742,"freshness":"FRESH","line1":"1 52605U 22052H   26144.64651363 -.00000332  00000+0 -27630-5 0  9992","line2":"2 52605  53.2161 302.9148 0001266  88.6561 271.4576 15.08843226222258","mean_motion":15.08843226,"eccentricity":0.0001266,"inclination_deg":53.2161,"raan_deg":302.9148,"arg_perigee_deg":88.6561,"mean_anomaly_deg":271.4576,"bstar":-2.763e-6,"rev_number":22225,"period_min":95.43735062638,"perigee_km":538.85772598136,"apogee_km":540.60933079915,"semimajor_km":6917.8705283903,"source":"CELESTRAK","updated_at":"2026-05-25T13:38:17.198140Z"}}}